Location: Unspecified
(0.0000°N, 0.0000°E)
Time: 12:15:00
(UTC+00:00)

ADRAS-J - Pass Details

Date: 22 May 2025
Orbit: 544 x 592 km, 98.2° (Epoch: 16 June)

Event Time Altitude Azimuth Distance (km) Brightness Sun altitude
Rises 04:59:47 0° 17° (NNE) 2,804 ? -13.3°
Reaches altitude 10° 05:01:57 10° 20° (NNE) 1,910 ? -12.8°
Maximum altitude 05:06:04 65° 102° (ESE) 650 ? -11.9°
Drops below altitude 10° 05:10:12 10° 184° (S) 1,924 ? -10.9°
Sets 05:12:23 0° 187° (S) 2,826 ? -10.4°
